Location: Unspecified
(0.0000°N, 0.0000°E)
Time: 13:41:29
(UTC+02:00)

Iridium 39 - Visible Passes

Search period start: 18 September 2014 00:00
Search period end: 28 September 2014 00:00
Orbit: 776 x 779 km, 86.4° (Epoch: 17 September)

Date Brightness Start Highest point End Pass type
(mag) Time Alt. Az. Time Alt. Az. Time Alt. Az.
18 Sep 7.2 07:11:07 10° SSE 07:16:08 49° E 07:21:07 10° NNE visible
19 Sep 8.7 06:38:43 10° SE 06:42:40 22° E 06:46:36 10° NE visible
20 Sep 9.4 20:19:56 10° NW 20:23:03 16° W 20:26:11 10° SW visible
21 Sep 6.2 07:10:59 10° S 07:16:12 80° E 07:21:23 10° N visible
22 Sep 7.7 06:38:01 10° SSE 06:42:44 35° E 06:47:26 10° NNE visible
23 Sep 9.0 06:06:10 10° SE 06:09:17 16° E 06:12:22 10° NE visible
24 Sep 6.0 07:11:06 10° S 07:16:15 63° W 07:21:23 10° N visible
25 Sep 6.7 06:37:41 10° SSE 06:42:48 58° E 06:47:53 10° NNE visible
26 Sep 8.2 06:05:04 10° SE 06:09:21 26° E 06:13:36 10° NE visible
27 Sep 9.2 05:34:22 10° ESE 05:35:53 11° E 05:37:25 10° ENE visible
27 Sep 6.5 07:11:31 10° SSW 07:16:19 38° W 07:21:06 10° NNW visible
